Content
SEND FEEDBACK

Daily
Averages
Monthly
Summary
United States of America

SWANNANOA, NORTH CAROLINA


Home > North America > United States > North Carolina
Elevation: 2265 feet     Latitude: 35 36N     Longitude: 082 32W

WEATHER
 
SELECT A DAY
Number of Records: 225,800;   Date Range: 1/1/95 - 7/28/14
 
SHARE

PRINT THIS DATA

[ ← Previous Day ]
WEATHER ALMANAC - FEBRUARY 18, 2013
[ Next Day → ]
[ °C ]   °F
Weather ElementAverageHighLow
Temperature35.9 °F52 °F (2:54 pm)19 °F (4:54 am)
Dewpoint18.5 °F23 °F (4:54 pm)14 °F (2:54 am)
Humidity53.7 %85 % (4:54 am)30 % (2:54 pm)
Barometer30.27 in30.36 in (7:54 am)30.14 in (11:54 pm)
Wind Speed6.4 mph18.4 mph (11:54 pm)
Wind Gust23 mph (11:54 pm)
Weather ElementAverage
Visibility10 mi
Wind DirectionE (86.5 °)

Weather ElementTotal
Precipitation---
Heating Degree Days29.5 (Base 65)
Averaged from 23 records on February 18, 2013
WEATHER CONDITIONS BREAKOUT
WIND DIRECTION BREAKOUT
WEATHER BY HOUR - FEBRUARY 18, 2013
[ °C ]   °F
Local TimeTemperatureDewpointHumidityBarometerVisibilityWind DirectionWind SpeedGust SpeedPrecipitationEventsConditions
1:54 AM21.0 °F15.1 °F78 %30.27 in10.0 miCalmClear
2:54 AM21.0 °F14.0 °F74 %30.28 in10.0 miCalmClear
3:54 AM19.9 °F14.0 °F78 %30.30 in10.0 miCalmClear
4:54 AM19.0 °F15.1 °F85 %30.32 in10.0 miCalmClear
5:54 AM19.0 °F14.0 °F81 %30.34 in10.0 miCalmClear
6:54 AM19.0 °F14.0 °F81 %30.35 in10.0 miCalmClear
7:54 AM19.9 °F16.0 °F85 %30.36 in10.0 miCalmClear
8:54 AM25.0 °F18.0 °F75 %30.36 in10.0 miCalmClear
9:54 AM32.0 °F15.1 °F50 %30.35 in10.0 miCalmClear
10:54 AM37.9 °F18.0 °F45 %30.33 in10.0 miSSE (150°)4.6 mphClear
11:54 AM44.1 °F17.1 °F34 %30.31 in10.0 miVariable4.6 mphClear
12:54 PM48.9 °F19.0 °F31 %30.27 in10.0 miSE (140°)8.1 mphClear
1:54 PM50.0 °F19.9 °F31 %30.24 in10.0 miVariable6.9 mphClear
2:54 PM52.0 °F21.0 °F30 %30.22 in10.0 miSouth (170°)10.4 mph18.4 mphClear
3:54 PM52.0 °F21.0 °F30 %30.22 in10.0 miSSE (160°)13.8 mph19.6 mphClear
4:54 PM51.1 °F23.0 °F33 %30.21 in10.0 miSouth (180°)13.8 mphClear
5:54 PM46.9 °F21.9 °F37 %30.22 in10.0 miSouth (170°)12.7 mphClear
6:54 PM43.0 °F21.9 °F43 %30.23 in10.0 miSSE (160°)10.4 mphClear
7:54 PM42.1 °F21.0 °F43 %30.22 in10.0 miSSE (160°)10.4 mphClear
8:54 PM39.9 °F21.0 °F47 %30.21 in10.0 miSSE (160°)5.8 mphMostly Cloudy
9:54 PM42.1 °F21.9 °F45 %30.18 in10.0 miSouth (170°)13.8 mphOvercast
10:54 PM39.9 °F21.9 °F49 %30.17 in10.0 miSouth (180°)13.8 mphClear
11:54 PM39.9 °F21.9 °F49 %30.14 in10.0 miSouth (190°)18.4 mph23.0 mphScattered Clouds
Hourly data recorded from KAVL, located miles away from Swannanoa, North Carolina







STORIES FROM OUR PARTNERS